Location: Fundy National Park
(45.6138°N, 65.0316°W)
Time: 10:45:01
(UTC-03:00)

ISS - Visible Passes

Search period start: 25 March 2019 00:00
Search period end: 04 April 2019 00:00
Orbit: 408 x 411 km, 51.6° (Epoch: 25 March)

Date Brightness Start Highest point End Pass type
(mag) Time Alt. Az. Time Alt. Az. Time Alt. Az.
25 Mar -3.1 20:54:17 10° W 20:57:31 52° NNW 20:59:58 16° NE visible
25 Mar -0.8 22:31:41 10° WNW 22:32:45 17° NW 22:32:45 17° NW visible
26 Mar -2.2 21:40:49 10° WNW 21:43:47 29° N 21:44:20 28° NNE visible
27 Mar -2.4 20:49:57 10° W 20:53:01 34° NNW 20:55:51 11° NE visible
27 Mar -1.1 22:27:14 10° NW 22:28:37 19° NW 22:28:37 19° NW visible
28 Mar -2.2 21:36:28 10° WNW 21:39:21 27° N 21:40:02 25° NNE visible
29 Mar -2.1 20:45:37 10° WNW 20:48:32 28° N 20:51:25 10° ENE visible
29 Mar -1.4 22:22:34 10° NW 22:24:11 23° NW 22:24:11 23° NW visible
30 Mar -2.4 21:31:52 10° NW 21:34:52 31° N 21:35:32 28° NE visible
31 Mar -2.2 20:41:06 10° WNW 20:44:01 28° N 20:46:51 11° ENE visible
31 Mar -1.8 22:17:46 10° WNW 22:19:36 29° NW 22:19:36 29° NW visible
01 Apr -3.0 21:27:06 10° NW 21:30:16 42° NNE 21:30:56 37° NE visible
02 Apr -2.6 20:36:24 10° NW 20:39:27 33° NNE 20:42:15 12° ENE visible
02 Apr -2.2 22:12:57 10° WNW 22:15:01 35° WNW 22:15:01 35° WNW visible
03 Apr -3.8 21:22:12 10° WNW 21:25:31 75° NNE 21:26:20 47° E visible
